| time (UTC) | temp C | wind direction | speed KPH | gust KPH | rain 1hr cm | rain 24hr cm | rain mn cm | humidity % | barometer mb |
| 20260507061001 | 7 | 252 | 6.4 | 16.1 | 0.00 | 0.03 | 0.00 | 61 | 1012.6 |
| 20260507060501 | 7 | 250 | 6.4 | 16.1 | 0.00 | 0.03 | 0.00 | 61 | 1012.5 |
| 20260507060001 | 6 | 276 | 6.4 | 11.3 | 0.00 | 0.03 | 0.00 | 61 | 1012.4 |
| 20260507055501 | 6 | 248 | 6.4 | 16.1 | 0.00 | 0.03 | 0.00 | 61 | 1012.5 |
| 20260507055001 | 6 | 269 | 8.0 | 16.1 | 0.00 | 0.03 | 0.00 | 61 | 1012.5 |
| 20260507054501 | 6 | 256 | 6.4 | 12.9 | 0.00 | 0.03 | 0.00 | 61 | 1012.4 |
| 20260507054001 | 6 | 247 | 4.8 | 12.9 | 0.00 | 0.03 | 0.00 | 61 | 1012.5 |
| 20260507053501 | 6 | 236 | 4.8 | 11.3 | 0.00 | 0.03 | 0.00 | 61 | 1012.6 |
| 20260507053001 | 6 | 264 | 4.8 | 9.7 | 0.00 | 0.03 | 0.00 | 61 | 1012.6 |
| 20260507052501 | 6 | 255 | 3.2 | 8.0 | 0.00 | 0.03 | 0.00 | 62 | 1012.6 |
| 20260507052001 | 6 | 240 | 3.2 | 9.7 | 0.00 | 0.03 | 0.00 | 62 | 1012.6 |
| 20260507051501 | 6 | 250 | 3.2 | 9.7 | 0.00 | 0.03 | 0.00 | 62 | 1012.5 |
| 20260507051001 | 6 | 243 | 3.2 | 9.7 | 0.00 | 0.03 | 0.00 | 62 | 1012.5 |
| 20260507050501 | 6 | 269 | 4.8 | 9.7 | 0.00 | 0.03 | 0.00 | 62 | 1012.6 |
| 20260507050001 | 6 | 250 | 4.8 | 14.5 | 0.00 | 0.03 | 0.00 | 62 | 1012.5 |
| 20260507045501 | 6 | 245 | 4.8 | 11.3 | 0.00 | 0.03 | 0.00 | 63 | 1012.5 |
| 20260507045001 | 6 | 237 | 3.2 | 9.7 | 0.00 | 0.03 | 0.00 | 63 | 1012.6 |
| 20260507044501 | 6 | 245 | 3.2 | 8.0 | 0.00 | 0.03 | 0.00 | 63 | 1012.6 |
| 20260507044001 | 6 | 266 | 3.2 | 8.0 | 0.00 | 0.03 | 0.00 | 64 | 1012.7 |
| 20260507043502 | 6 | 253 | 4.8 | 9.7 | 0.00 | 0.03 | 0.00 | 64 | 1012.6 |
| 20260507043002 | 6 | 243 | 4.8 | 9.7 | 0.00 | 0.03 | 0.00 | 65 | 1012.6 |
| 20260507042502 | 6 | 254 | 6.4 | 12.9 | 0.00 | 0.03 | 0.00 | 65 | 1012.6 |
| 20260507042002 | 6 | 250 | 6.4 | 11.3 | 0.00 | 0.03 | 0.00 | 65 | 1012.6 |
| 20260507041502 | 7 | 244 | 6.4 | 12.9 | 0.00 | 0.03 | 0.00 | 66 | 1012.5 |
| 20260507041002 | 7 | 255 | 6.4 | 11.3 | 0.00 | 0.03 | 0.00 | 66 | 1012.5 |
| 20260507040502 | 7 | 251 | 8.0 | 16.1 | 0.00 | 0.03 | 0.00 | 66 | 1012.6 |
| 20260507040002 | 7 | 262 | 6.4 | 14.5 | 0.00 | 0.03 | 0.00 | 66 | 1012.7 |
| 20260507035502 | 7 | 253 | 6.4 | 14.5 | 0.00 | 0.03 | 0.00 | 66 | 1012.7 |
| 20260507035002 | 7 | 257 | 4.8 | 12.9 | 0.00 | 0.03 | 0.00 | 67 | 1012.7 |
| 20260507034502 | 7 | 247 | 4.8 | 9.7 | 0.00 | 0.03 | 0.00 | 67 | 1012.8 |
| 20260507034002 | 7 | 236 | 4.8 | 11.3 | 0.00 | 0.03 | 0.00 | 67 | 1012.8 |
| 20260507033502 | 7 | 242 | 4.8 | 14.5 | 0.00 | 0.03 | 0.00 | 67 | 1012.7 |
| 20260507033002 | 7 | 248 | 4.8 | 9.7 | 0.00 | 0.03 | 0.00 | 67 | 1012.7 |
| 20260507032502 | 7 | 265 | 6.4 | 11.3 | 0.00 | 0.03 | 0.00 | 66 | 1012.7 |
| 20260507032002 | 7 | 233 | 6.4 | 16.1 | 0.00 | 0.03 | 0.00 | 67 | 1012.7 |
| 20260507031502 | 7 | 257 | 6.4 | 16.1 | 0.00 | 0.03 | 0.00 | 67 | 1012.8 |
| 20260507031002 | 7 | 229 | 4.8 | 16.1 | 0.00 | 0.03 | 0.00 | 67 | 1012.7 |
| 20260507030502 | 7 | 234 | 4.8 | 12.9 | 0.00 | 0.03 | 0.00 | 67 | 1012.7 |
| 20260507030002 | 7 | 228 | 4.8 | 12.9 | 0.00 | 0.03 | 0.00 | 68 | 1012.7 |
| 20260507025502 | 7 | 240 | 4.8 | 12.9 | 0.00 | 0.03 | 0.00 | 68 | 1012.7 |
| 20260507025002 | 7 | 253 | 4.8 | 12.9 | 0.00 | 0.03 | 0.00 | 68 | 1012.6 |
| 20260507024502 | 7 | 244 | 6.4 | 11.3 | 0.00 | 0.03 | 0.00 | 68 | 1012.7 |
| 20260507024002 | 7 | 257 | 6.4 | 16.1 | 0.00 | 0.03 | 0.00 | 68 | 1012.7 |
| 20260507023502 | 7 | 251 | 6.4 | 12.9 | 0.00 | 0.03 | 0.00 | 68 | 1012.6 |
| 20260507023002 | 7 | 238 | 6.4 | 14.5 | 0.00 | 0.03 | 0.00 | 68 | 1012.6 |
| 20260507022502 | 7 | 247 | 6.4 | 11.3 | 0.00 | 0.03 | 0.00 | 68 | 1012.7 |
| 20260507022002 | 7 | 250 | 6.4 | 16.1 | 0.00 | 0.03 | 0.00 | 68 | 1012.7 |
| 20260507021502 | 7 | 245 | 6.4 | 16.1 | 0.00 | 0.03 | 0.00 | 68 | 1012.7 |
| 20260507021002 | 7 | 264 | 6.4 | 16.1 | 0.00 | 0.03 | 0.00 | 68 | 1012.8 |
| 20260507020502 | 7 | 253 | 6.4 | 12.9 | 0.00 | 0.03 | 0.00 | 68 | 1012.7 |
| 20260507020002 | 7 | 229 | 8.0 | 16.1 | 0.00 | 0.03 | 0.00 | 69 | 1012.8 |
| 20260507015502 | 7 | 250 | 8.0 | 16.1 | 0.00 | 0.03 | 0.00 | 69 | 1012.8 |
| 20260507015002 | 7 | 245 | 8.0 | 17.7 | 0.00 | 0.03 | 0.00 | 69 | 1012.8 |
| 20260507014502 | 7 | 254 | 8.0 | 14.5 | 0.00 | 0.03 | 0.00 | 69 | 1012.8 |
| 20260507014002 | 7 | 247 | 8.0 | 16.1 | 0.00 | 0.03 | 0.00 | 69 | 1012.9 |
| 20260507013502 | 7 | 268 | 8.0 | 17.7 | 0.00 | 0.03 | 0.00 | 69 | 1012.9 |
| 20260507013002 | 7 | 260 | 9.7 | 16.1 | 0.00 | 0.03 | 0.00 | 69 | 1013.0 |
| 20260507012502 | 7 | 248 | 8.0 | 16.1 | 0.00 | 0.03 | 0.00 | 69 | 1013.0 |
| 20260507012002 | 7 | 248 | 8.0 | 14.5 | 0.00 | 0.03 | 0.00 | 69 | 1013.0 |
| 20260507011502 | 7 | 288 | 8.0 | 14.5 | 0.00 | 0.03 | 0.00 | 69 | 1013.1 |
| 20260507011002 | 7 | 264 | 8.0 | 16.1 | 0.00 | 0.03 | 0.00 | 69 | 1013.1 |
| 20260507010502 | 7 | 240 | 6.4 | 14.5 | 0.00 | 0.03 | 0.00 | 69 | 1013.1 |
| 20260507010002 | 7 | 250 | 6.4 | 14.5 | 0.00 | 0.03 | 0.00 | 69 | 1013.2 |
| 20260507005502 | 7 | 259 | 8.0 | 14.5 | 0.00 | 0.03 | 0.00 | 69 | 1013.2 |
| 20260507005002 | 7 | 250 | 8.0 | 12.9 | 0.00 | 0.03 | 0.00 | 69 | 1013.2 |
| 20260507004502 | 7 | 247 | 6.4 | 14.5 | 0.00 | 0.03 | 0.00 | 69 | 1013.3 |
| 20260507004002 | 7 | 248 | 6.4 | 12.9 | 0.00 | 0.03 | 0.00 | 69 | 1013.3 |
| 20260507003502 | 8 | 242 | 4.8 | 12.9 | 0.00 | 0.03 | 0.00 | 70 | 1013.4 |
| 20260507003002 | 8 | 243 | 4.8 | 11.3 | 0.00 | 0.03 | 0.00 | 70 | 1013.5 |
| 20260507002502 | 8 | 259 | 4.8 | 9.7 | 0.00 | 0.03 | 0.00 | 70 | 1013.5 |
| 20260507002002 | 8 | 252 | 4.8 | 11.3 | 0.00 | 0.03 | 0.00 | 70 | 1013.6 |
| 20260507001502 | 8 | 274 | 6.4 | 12.9 | 0.00 | 0.03 | 0.00 | 70 | 1013.6 |
| 20260507001002 | 8 | 246 | 6.4 | 14.5 | 0.00 | 0.03 | 0.00 | 70 | 1013.6 |
| 20260507000502 | 8 | 260 | 6.4 | 11.3 | 0.00 | 0.03 | 0.00 | 70 | 1013.6 |
| 20260507000003 | 8 | 250 | 6.4 | 16.1 | 0.00 | 0.03 | 0.00 | 71 | 1013.6 |
| 20260506235502 | 8 | 258 | 4.8 | 12.9 | 0.00 | 0.03 | 0.00 | 71 | 1013.6 |
| 20260506235002 | 8 | 246 | 4.8 | 9.7 | 0.00 | 0.03 | 0.00 | 72 | 1013.7 |
| 20260506234502 | 8 | 259 | 4.8 | 12.9 | 0.00 | 0.03 | 0.00 | 72 | 1013.7 |
| 20260506234002 | 8 | 269 | 4.8 | 12.9 | 0.00 | 0.03 | 0.00 | 72 | 1013.7 |
| 20260506233502 | 8 | 250 | 4.8 | 9.7 | 0.00 | 0.03 | 0.00 | 73 | 1013.7 |
| 20260506233002 | 8 | 242 | 3.2 | 9.7 | 0.00 | 0.03 | 0.00 | 73 | 1013.7 |
| 20260506232502 | 8 | 228 | 3.2 | 9.7 | 0.00 | 0.03 | 0.00 | 73 | 1013.6 |
| 20260506232002 | 8 | 263 | 3.2 | 11.3 | 0.00 | 0.05 | 0.00 | 73 | 1013.6 |
| 20260506231503 | 8 | 238 | 3.2 | 8.0 | 0.00 | 0.05 | 0.00 | 73 | 1013.6 |
| 20260506231002 | 8 | 244 | 3.2 | 8.0 | 0.00 | 0.05 | 0.00 | 73 | 1013.6 |
| 20260506230503 | 8 | 264 | 1.6 | 8.0 | 0.00 | 0.05 | 0.00 | 73 | 1013.7 |
| 20260506230003 | 8 | 206 | 1.6 | 11.3 | 0.00 | 0.05 | 0.00 | 74 | 1013.7 |
| 20260506225503 | 8 | 254 | 3.2 | 9.7 | 0.00 | 0.05 | 0.00 | 74 | 1013.7 |
| 20260506225003 | 8 | 243 | 3.2 | 6.4 | 0.00 | 0.05 | 0.00 | 74 | 1013.7 |
| 20260506224503 | 8 | 252 | 3.2 | 8.0 | 0.00 | 0.05 | 0.00 | 74 | 1013.8 |
| 20260506224003 | 8 | 264 | 3.2 | 8.0 | 0.00 | 0.05 | 0.00 | 74 | 1013.8 |
| 20260506223503 | 8 | 266 | 3.2 | 9.7 | 0.00 | 0.05 | 0.00 | 74 | 1013.8 |
| 20260506223003 | 8 | 244 | 1.6 | 9.7 | 0.00 | 0.05 | 0.00 | 75 | 1013.8 |
| 20260506222503 | 8 | 248 | 1.6 | 4.8 | 0.00 | 0.05 | 0.00 | 75 | 1013.8 |
| 20260506222003 | 8 | 249 | 1.6 | 6.4 | 0.00 | 0.05 | 0.00 | 75 | 1013.7 |
| 20260506221503 | 9 | 240 | 1.6 | 6.4 | 0.00 | 0.05 | 0.00 | 75 | 1013.8 |
| 20260506221003 | 9 | 273 | 1.6 | 6.4 | 0.00 | 0.05 | 0.00 | 75 | 1013.8 |
| 20260506220503 | 9 | 260 | 1.6 | 4.8 | 0.00 | 0.05 | 0.00 | 75 | 1013.8 |
| 20260506220003 | 10 | 252 | 3.2 | 8.0 | 0.00 | 0.05 | 0.05 | 74 | 1013.8 |
| 20260506215503 | 10 | 257 | 3.2 | 6.4 | 0.00 | 0.05 | 0.05 | 74 | 1013.8 |
| 20260506215003 | 10 | 254 | 3.2 | 8.0 | 0.00 | 0.05 | 0.05 | 74 | 1013.8 |
| 20260506214503 | 10 | 255 | 3.2 | 12.9 | 0.00 | 0.05 | 0.05 | 74 | 1013.8 |
| 20260506214003 | 10 | 250 | 1.6 | 8.0 | 0.00 | 0.05 | 0.05 | 73 | 1013.8 |
| 20260506213503 | 10 | 269 | 3.2 | 8.0 | 0.00 | 0.05 | 0.05 | 73 | 1013.8 |
| 20260506213003 | 10 | 246 | 1.6 | 6.4 | 0.00 | 0.05 | 0.05 | 73 | 1013.8 |
| 20260506212503 | 10 | 243 | 3.2 | 4.8 | 0.00 | 0.05 | 0.05 | 73 | 1013.9 |
| 20260506212003 | 10 | 269 | 4.8 | 9.7 | 0.00 | 0.05 | 0.05 | 73 | 1013.9 |
| 20260506211503 | 10 | 266 | 3.2 | 9.7 | 0.00 | 0.05 | 0.05 | 73 | 1013.8 |
| 20260506211003 | 10 | 256 | 3.2 | 9.7 | 0.00 | 0.05 | 0.05 | 73 | 1013.8 |
| 20260506210503 | 10 | 249 | 3.2 | 8.0 | 0.00 | 0.05 | 0.05 | 73 | 1013.9 |
| 20260506210003 | 10 | 288 | 3.2 | 8.0 | 0.00 | 0.05 | 0.05 | 73 | 1013.8 |
| 20260506205503 | 10 | 248 | 4.8 | 9.7 | 0.00 | 0.05 | 0.05 | 73 | 1013.8 |
| 20260506205003 | 10 | 250 | 6.4 | 9.7 | 0.00 | 0.05 | 0.05 | 72 | 1013.8 |
| 20260506204503 | 10 | 254 | 6.4 | 11.3 | 0.00 | 0.05 | 0.05 | 71 | 1013.8 |
| 20260506204003 | 11 | 233 | 6.4 | 12.9 | 0.00 | 0.05 | 0.05 | 69 | 1013.7 |
| 20260506203503 | 11 | 243 | 4.8 | 14.5 | 0.00 | 0.05 | 0.05 | 66 | 1013.7 |
| 20260506203003 | 11 | 236 | 1.6 | 9.7 | 0.00 | 0.05 | 0.05 | 63 | 1013.5 |
| 20260506202503 | 11 | 277 | 0.0 | 0.0 | 0.00 | 0.05 | 0.05 | 61 | 1013.4 |
| 20260506202003 | 11 | 277 | 0.0 | 0.0 | 0.00 | 0.05 | 0.05 | 60 | 1013.3 |
| 20260506201503 | 12 | 277 | 0.0 | 0.0 | 0.00 | 0.05 | 0.05 | 59 | 1013.4 |
| 20260506201003 | 12 | 277 | 0.0 | 0.0 | 0.00 | 0.05 | 0.05 | 59 | 1013.4 |
| 20260506200503 | 12 | 278 | 0.0 | 0.0 | 0.00 | 0.05 | 0.05 | 58 | 1013.3 |
| 20260506200004 | 12 | 278 | 0.0 | 0.0 | 0.00 | 0.05 | 0.05 | 56 | 1013.2 |
| 20260506195503 | 12 | 278 | 0.0 | 0.0 | 0.00 | 0.05 | 0.05 | 54 | 1013.2 |
| 20260506195003 | 13 | 278 | 0.0 | 1.6 | 0.00 | 0.05 | 0.05 | 52 | 1013.2 |
| 20260506194503 | 13 | 256 | 0.0 | 0.0 | 0.00 | 0.05 | 0.05 | 51 | 1013.2 |
| 20260506194003 | 13 | 256 | 0.0 | 1.6 | 0.00 | 0.05 | 0.05 | 51 | 1013.2 |
| 20260506193503 | 13 | 255 | 0.0 | 0.0 | 0.00 | 0.05 | 0.05 | 52 | 1013.1 |
| 20260506193003 | 13 | 203 | 0.0 | 0.0 | 0.00 | 0.05 | 0.05 | 51 | 1013.1 |
| 20260506192503 | 13 | 202 | 1.6 | 1.6 | 0.00 | 0.05 | 0.05 | 51 | 1013.0 |
| 20260506192003 | 14 | 202 | 1.6 | 4.8 | 0.00 | 0.05 | 0.05 | 49 | 1013.0 |
| 20260506191503 | 14 | 216 | 0.0 | 3.2 | 0.00 | 0.05 | 0.05 | 48 | 1013.0 |
| 20260506191003 | 15 | 179 | 0.0 | 1.6 | 0.00 | 0.05 | 0.05 | 49 | 1013.0 |
| 20260506190503 | 15 | 179 | 0.0 | 1.6 | 0.00 | 0.05 | 0.05 | 46 | 1013.0 |
| 20260506190004 | 15 | 179 | 0.0 | 0.0 | 0.00 | 0.05 | 0.05 | 45 | 1012.9 |
| 20260506185504 | 15 | 179 | 0.0 | 1.6 | 0.00 | 0.05 | 0.05 | 43 | 1012.9 |
| 20260506185003 | 16 | 179 | 1.6 | 1.6 | 0.00 | 0.05 | 0.05 | 45 | 1012.9 |
| 20260506184504 | 16 | 179 | 1.6 | 3.2 | 0.00 | 0.05 | 0.05 | 42 | 1012.8 |
| 20260506184004 | 16 | 179 | 1.6 | 1.6 | 0.00 | 0.05 | 0.05 | 43 | 1012.8 |
| 20260506183503 | 16 | 205 | 1.6 | 3.2 | 0.00 | 0.05 | 0.05 | 44 | 1012.8 |
| 20260506183004 | 16 | 236 | 3.2 | 4.8 | 0.00 | 0.05 | 0.05 | 42 | 1012.8 |
| 20260506182504 | 16 | 237 | 1.6 | 6.4 | 0.00 | 0.05 | 0.05 | 40 | 1012.9 |
| 20260506182004 | 17 | 202 | 0.0 | 4.8 | 0.00 | 0.05 | 0.05 | 38 | 1012.8 |
| 20260506181504 | 17 | 27 | 0.0 | 0.0 | 0.00 | 0.05 | 0.05 | 37 | 1012.9 |
| 20260506181004 | 17 | 27 | 0.0 | 0.0 | 0.00 | 0.05 | 0.05 | 38 | 1013.0 |
| 20260506180504 | 17 | 27 | 1.6 | 3.2 | 0.00 | 0.05 | 0.05 | 38 | 1012.9 |
| 20260506180005 | 16 | 116 | 1.6 | 3.2 | 0.00 | 0.05 | 0.05 | 40 | 1013.0 |
| 20260506175504 | 16 | 120 | 1.6 | 3.2 | 0.00 | 0.05 | 0.05 | 39 | 1013.0 |
| 20260506175004 | 16 | 166 | 1.6 | 6.4 | 0.00 | 0.05 | 0.05 | 40 | 1013.1 |
| 20260506174504 | 16 | 136 | 1.6 | 4.8 | 0.00 | 0.05 | 0.05 | 39 | 1013.1 |
| 20260506174004 | 16 | 79 | 1.6 | 3.2 | 0.00 | 0.05 | 0.05 | 39 | 1013.2 |
| 20260506173504 | 16 | 108 | 1.6 | 8.0 | 0.00 | 0.05 | 0.05 | 39 | 1013.2 |
| 20260506173004 | 16 | 60 | 1.6 | 6.4 | 0.00 | 0.05 | 0.05 | 39 | 1013.3 |
| 20260506172504 | 16 | 87 | 3.2 | 6.4 | 0.00 | 0.05 | 0.05 | 40 | 1013.3 |
| 20260506172004 | 15 | 105 | 4.8 | 11.3 | 0.00 | 0.05 | 0.05 | 40 | 1013.4 |
| 20260506171504 | 16 | 115 | 1.6 | 9.7 | 0.00 | 0.05 | 0.05 | 40 | 1013.4 |
| 20260506171004 | 16 | 122 | 3.2 | 4.8 | 0.00 | 0.05 | 0.05 | 42 | 1013.4 |
| 20260506170504 | 16 | 90 | 4.8 | 11.3 | 0.00 | 0.05 | 0.05 | 41 | 1013.4 |
| 20260506170004 | 16 | 102 | 4.8 | 9.7 | 0.00 | 0.05 | 0.05 | 40 | 1013.5 |
| 20260506165504 | 16 | 63 | 4.8 | 8.0 | 0.00 | 0.05 | 0.05 | 38 | 1013.5 |
| 20260506165004 | 16 | 142 | 4.8 | 9.7 | 0.00 | 0.05 | 0.05 | 39 | 1013.5 |
| 20260506164504 | 16 | 117 | 4.8 | 9.7 | 0.00 | 0.05 | 0.05 | 39 | 1013.5 |
| 20260506164004 | 16 | 122 | 6.4 | 11.3 | 0.00 | 0.05 | 0.05 | 39 | 1013.4 |
| 20260506163504 | 16 | 158 | 6.4 | 11.3 | 0.00 | 0.05 | 0.05 | 40 | 1013.4 |
| 20260506163004 | 16 | 111 | 6.4 | 12.9 | 0.00 | 0.05 | 0.05 | 40 | 1013.5 |
| 20260506162504 | 16 | 183 | 4.8 | 9.7 | 0.00 | 0.05 | 0.05 | 40 | 1013.6 |
| 20260506162004 | 16 | 102 | 4.8 | 11.3 | 0.00 | 0.05 | 0.05 | 40 | 1013.6 |
| 20260506161504 | 16 | 148 | 8.0 | 12.9 | 0.00 | 0.05 | 0.05 | 39 | 1013.6 |
| 20260506161004 | 16 | 60 | 6.4 | 12.9 | 0.00 | 0.05 | 0.05 | 38 | 1013.6 |
| 20260506160504 | 16 | 98 | 4.8 | 16.1 | 0.00 | 0.05 | 0.05 | 38 | 1013.6 |
| 20260506160004 | 16 | 4 | 4.8 | 9.7 | 0.00 | 0.05 | 0.05 | 40 | 1013.6 |
| 20260506155504 | 16 | 93 | 3.2 | 14.5 | 0.00 | 0.05 | 0.05 | 43 | 1013.6 |
| 20260506155004 | 15 | 251 | 4.8 | 11.3 | 0.00 | 0.05 | 0.05 | 41 | 1013.7 |
| 20260506154504 | 15 | 138 | 6.4 | 14.5 | 0.00 | 0.05 | 0.05 | 42 | 1013.7 |
| 20260506154004 | 15 | 138 | 4.8 | 9.7 | 0.00 | 0.05 | 0.05 | 41 | 1013.7 |
| 20260506153504 | 15 | 73 | 3.2 | 8.0 | 0.00 | 0.05 | 0.05 | 43 | 1013.8 |
| 20260506153004 | 15 | 279 | 3.2 | 6.4 | 0.00 | 0.05 | 0.05 | 44 | 1013.8 |
| 20260506152504 | 15 | 220 | 3.2 | 8.0 | 0.00 | 0.05 | 0.05 | 43 | 1013.9 |
| 20260506152004 | 16 | 209 | 1.6 | 6.4 | 0.00 | 0.05 | 0.05 | 42 | 1014.0 |
| 20260506151504 | 16 | 291 | 1.6 | 4.8 | 0.00 | 0.05 | 0.05 | 42 | 1014.0 |
| 20260506151004 | 15 | 356 | 1.6 | 4.8 | 0.00 | 0.05 | 0.05 | 46 | 1014.0 |
| 20260506150504 | 15 | 334 | 1.6 | 4.8 | 0.00 | 0.05 | 0.05 | 43 | 1014.1 |
| 20260506150004 | 16 | 326 | 1.6 | 6.4 | 0.00 | 0.05 | 0.05 | 43 | 1014.2 |
| 20260506145504 | 15 | 43 | 1.6 | 4.8 | 0.00 | 0.05 | 0.05 | 45 | 1014.2 |
| 20260506145004 | 15 | 98 | 3.2 | 9.7 | 0.00 | 0.05 | 0.05 | 43 | 1014.3 |
| 20260506144504 | 15 | 137 | 3.2 | 6.4 | 0.00 | 0.05 | 0.05 | 46 | 1014.3 |
| 20260506144004 | 15 | 342 | 3.2 | 6.4 | 0.00 | 0.05 | 0.05 | 45 | 1014.4 |
| 20260506143504 | 14 | 87 | 3.2 | 8.0 | 0.00 | 0.05 | 0.05 | 47 | 1014.5 |
| 20260506143004 | 14 | 129 | 3.2 | 6.4 | 0.00 | 0.05 | 0.05 | 48 | 1014.5 |
| 20260506142504 | 14 | 113 | 4.8 | 6.4 | 0.00 | 0.05 | 0.05 | 49 | 1014.6 |
| 20260506142004 | 14 | 115 | 6.4 | 9.7 | 0.00 | 0.05 | 0.05 | 50 | 1014.7 |
| 20260506141504 | 14 | 109 | 8.0 | 14.5 | 0.00 | 0.05 | 0.05 | 48 | 1014.7 |
| 20260506141004 | 15 | 96 | 6.4 | 12.9 | 0.00 | 0.05 | 0.05 | 49 | 1014.7 |
| 20260506140504 | 15 | 79 | 6.4 | 12.9 | 0.00 | 0.05 | 0.05 | 50 | 1014.8 |
| 20260506140005 | 14 | 79 | 8.0 | 12.9 | 0.00 | 0.05 | 0.05 | 48 | 1014.8 |
| 20260506135504 | 15 | 89 | 8.0 | 17.7 | 0.00 | 0.05 | 0.05 | 50 | 1014.8 |
| 20260506135004 | 15 | 91 | 4.8 | 17.7 | 0.00 | 0.05 | 0.05 | 49 | 1014.9 |
| 20260506134504 | 15 | 111 | 4.8 | 8.0 | 0.00 | 0.05 | 0.05 | 50 | 1014.9 |
| 20260506134004 | 15 | 69 | 4.8 | 11.3 | 0.00 | 0.05 | 0.05 | 48 | 1015.0 |
| 20260506133504 | 15 | 65 | 4.8 | 11.3 | 0.00 | 0.05 | 0.05 | 50 | 1015.1 |
| 20260506133004 | 15 | 100 | 4.8 | 9.7 | 0.00 | 0.05 | 0.05 | 52 | 1015.1 |
| 20260506132504 | 14 | 47 | 4.8 | 14.5 | 0.00 | 0.05 | 0.05 | 50 | 1015.1 |
| 20260506132005 | 14 | 81 | 3.2 | 12.9 | 0.00 | 0.05 | 0.05 | 52 | 1015.1 |
| 20260506131505 | 14 | 156 | 1.6 | 12.9 | 0.00 | 0.05 | 0.05 | 52 | 1015.2 |
| 20260506131005 | 14 | 153 | 1.6 | 1.6 | 0.00 | 0.05 | 0.05 | 52 | 1015.2 |
| 20260506130505 | 13 | 125 | 4.8 | 8.0 | 0.00 | 0.05 | 0.05 | 50 | 1015.3 |
| 20260506130005 | 13 | 147 | 4.8 | 9.7 | 0.00 | 0.05 | 0.05 | 53 | 1015.3 |
| 20260506125505 | 13 | 150 | 4.8 | 11.3 | 0.00 | 0.05 | 0.05 | 58 | 1015.3 |
| 20260506125005 | 13 | 229 | 1.6 | 9.7 | 0.00 | 0.05 | 0.05 | 56 | 1015.4 |
| 20260506124505 | 13 | 162 | 1.6 | 1.6 | 0.00 | 0.05 | 0.05 | 55 | 1015.4 |
| 20260506124005 | 13 | 141 | 4.8 | 12.9 | 0.00 | 0.05 | 0.05 | 54 | 1015.5 |
| 20260506123505 | 13 | 250 | 4.8 | 8.0 | 0.00 | 0.05 | 0.05 | 53 | 1015.5 |
| 20260506123005 | 13 | 156 | 4.8 | 11.3 | 0.00 | 0.05 | 0.05 | 56 | 1015.5 |
| 20260506122505 | 13 | 131 | 4.8 | 8.0 | 0.00 | 0.05 | 0.05 | 57 | 1015.6 |
| 20260506122005 | 13 | 156 | 3.2 | 9.7 | 0.00 | 0.05 | 0.05 | 57 | 1015.7 |
| 20260506121505 | 13 | 158 | 3.2 | 8.0 | 0.00 | 0.05 | 0.05 | 56 | 1015.6 |
| 20260506121005 | 13 | 210 | 3.2 | 6.4 | 0.00 | 0.05 | 0.05 | 58 | 1015.7 |
| 20260506120505 | 13 | 176 | 4.8 | 6.4 | 0.00 | 0.05 | 0.05 | 58 | 1015.8 |
| 20260506120005 | 13 | 175 | 3.2 | 12.9 | 0.00 | 0.05 | 0.05 | 58 | 1015.8 |
| 20260506115505 | 12 | 184 | 3.2 | 8.0 | 0.00 | 0.05 | 0.05 | 59 | 1015.9 |
| 20260506115005 | 12 | 179 | 4.8 | 8.0 | 0.00 | 0.05 | 0.05 | 58 | 1015.9 |
| 20260506114505 | 13 | 178 | 4.8 | 12.9 | 0.00 | 0.05 | 0.05 | 56 | 1015.9 |
| 20260506114005 | 13 | 65 | 3.2 | 9.7 | 0.00 | 0.05 | 0.05 | 54 | 1016.0 |
| 20260506113505 | 13 | 287 | 3.2 | 6.4 | 0.00 | 0.05 | 0.05 | 56 | 1016.0 |
| 20260506113005 | 13 | 356 | 3.2 | 8.0 | 0.00 | 0.05 | 0.05 | 57 | 1016.1 |
| 20260506112505 | 12 | 99 | 4.8 | 12.9 | 0.00 | 0.05 | 0.05 | 58 | 1016.1 |
| 20260506112005 | 12 | 110 | 4.8 | 11.3 | 0.00 | 0.05 | 0.05 | 59 | 1016.1 |
| 20260506111505 | 12 | 128 | 3.2 | 11.3 | 0.00 | 0.05 | 0.05 | 58 | 1016.2 |
| 20260506111005 | 12 | 110 | 3.2 | 6.4 | 0.00 | 0.05 | 0.05 | 58 | 1016.1 |
| 20260506110505 | 12 | 49 | 4.8 | 6.4 | 0.00 | 0.05 | 0.05 | 60 | 1016.1 |
| 20260506110005 | 12 | 160 | 4.8 | 11.3 | 0.00 | 0.05 | 0.05 | 60 | 1016.3 |
| 20260506105505 | 12 | 132 | 3.2 | 12.9 | 0.00 | 0.05 | 0.05 | 61 | 1016.2 |
| 20260506105005 | 12 | 71 | 3.2 | 9.7 | 0.00 | 0.05 | 0.05 | 63 | 1016.2 |
| 20260506104505 | 11 | 116 | 3.2 | 8.0 | 0.00 | 0.05 | 0.05 | 64 | 1016.2 |
| 20260506104005 | 11 | 208 | 3.2 | 8.0 | 0.00 | 0.05 | 0.05 | 62 | 1016.2 |
| 20260506103505 | 11 | 230 | 4.8 | 9.7 | 0.00 | 0.05 | 0.05 | 62 | 1016.2 |
| 20260506103005 | 11 | 211 | 3.2 | 11.3 | 0.00 | 0.05 | 0.05 | 63 | 1016.2 |
| 20260506102505 | 12 | 240 | 1.6 | 16.1 | 0.00 | 0.05 | 0.05 | 64 | 1016.3 |
| 20260506102005 | 11 | 75 | 0.0 | 4.8 | 0.00 | 0.05 | 0.05 | 66 | 1016.3 |
| 20260506101505 | 11 | 249 | 1.6 | 3.2 | 0.00 | 0.05 | 0.05 | 68 | 1016.3 |
| 20260506101005 | 11 | 257 | 1.6 | 4.8 | 0.00 | 0.05 | 0.05 | 69 | 1016.4 |
| 20260506100505 | 11 | 266 | 1.6 | 4.8 | 0.00 | 0.05 | 0.05 | 69 | 1016.5 |
| 20260506100005 | 11 | 256 | 1.6 | 4.8 | 0.00 | 0.05 | 0.05 | 72 | 1016.5 |
| 20260506095505 | 10 | 79 | 3.2 | 4.8 | 0.00 | 0.05 | 0.05 | 71 | 1016.5 |
| 20260506095005 | 10 | 242 | 3.2 | 8.0 | 0.03 | 0.05 | 0.05 | 73 | 1016.6 |
| 20260506094505 | 10 | 200 | 1.6 | 8.0 | 0.03 | 0.05 | 0.05 | 75 | 1016.6 |
| 20260506094005 | 10 | 333 | 1.6 | 4.8 | 0.03 | 0.05 | 0.05 | 52 | 1016.6 |
| 20260506093505 | 9 | 238 | 0.0 | 4.8 | 0.03 | 0.05 | 0.05 | 45 | 1016.6 |
| 20260506093005 | 9 | 310 | 0.0 | 4.8 | 0.03 | 0.05 | 0.05 | 43 | 1016.6 |
| 20260506092505 | 8 | 327 | 1.6 | 3.2 | 0.03 | 0.05 | 0.05 | 43 | 1016.6 |
| 20260506092005 | 8 | 340 | 1.6 | 3.2 | 0.03 | 0.05 | 0.05 | 44 | 1016.7 |
| 20260506091505 | 8 | 328 | 0.0 | 3.2 | 0.03 | 0.05 | 0.05 | 44 | 1016.7 |
| 20260506091005 | 8 | 322 | 0.0 | 1.6 | 0.03 | 0.05 | 0.05 | 45 | 1016.8 |
| 20260506090505 | 8 | 274 | 0.0 | 4.8 | 0.03 | 0.05 | 0.05 | 45 | 1016.8 |
| 20260506090005 | 8 | 240 | 0.0 | 3.2 | 0.03 | 0.05 | 0.05 | 45 | 1016.8 |
| 20260506085505 | 7 | 268 | 1.6 | 3.2 | 0.03 | 0.05 | 0.05 | 45 | 1016.8 |
| 20260506085005 | 7 | 349 | 1.6 | 4.8 | 0.00 | 0.03 | 0.03 | 46 | 1016.7 |
| 20260506084505 | 7 | 268 | 1.6 | 6.4 | 0.00 | 0.03 | 0.03 | 46 | 1016.7 |
| 20260506084005 | 7 | 324 | 0.0 | 4.8 | 0.00 | 0.03 | 0.03 | 47 | 1016.7 |
| 20260506083505 | 6 | 301 | 1.6 | 3.2 | 0.00 | 0.03 | 0.03 | 47 | 1016.6 |
| 20260506083006 | 6 | 290 | 1.6 | 6.4 | 0.00 | 0.03 | 0.03 | 47 | 1016.6 |
| 20260506082506 | 6 | 264 | 0.0 | 3.2 | 0.00 | 0.03 | 0.03 | 47 | 1016.6 |
| 20260506082006 | 6 | 281 | 1.6 | 3.2 | 0.00 | 0.03 | 0.03 | 48 | 1016.6 |
| 20260506081506 | 6 | 338 | 1.6 | 4.8 | 0.00 | 0.03 | 0.03 | 48 | 1016.7 |
| 20260506081006 | 5 | 304 | 1.6 | 4.8 | 0.00 | 0.03 | 0.03 | 49 | 1016.7 |
| 20260506080506 | 5 | 277 | 1.6 | 4.8 | 0.00 | 0.03 | 0.03 | 49 | 1016.7 |
| 20260506073506 | 4 | 329 | 0.0 | 1.6 | 0.00 | 0.03 | 0.03 | 50 | 1016.7 |
| 20260506073006 | 4 | 92 | 0.0 | 1.6 | 0.00 | 0.03 | 0.03 | 51 | 1016.7 |
| 20260506072506 | 4 | 340 | 0.0 | 1.6 | 0.00 | 0.03 | 0.03 | 51 | 1016.7 |
| 20260506072006 | 3 | 337 | 0.0 | 1.6 | 0.00 | 0.05 | 0.03 | 51 | 1016.8 |
| 20260506071506 | 3 | 328 | 0.0 | 1.6 | 0.00 | 0.05 | 0.03 | 51 | 1016.7 |
| 20260506071006 | 3 | 328 | 0.0 | 3.2 | 0.00 | 0.05 | 0.03 | 52 | 1016.6 |
| 20260506070506 | 3 | 347 | 0.0 | 3.2 | 0.00 | 0.05 | 0.03 | 52 | 1016.7 |
| 20260506062506 | 2 | 83 | 1.6 | 4.8 | 0.00 | 0.05 | 0.03 | 53 | 1016.4 |
| 20260506062006 | 3 | 136 | 0.0 | 4.8 | 0.00 | 0.05 | 0.03 | 53 | 1016.4 |
| 20260506061506 | 2 | 129 | 1.6 | 4.8 | 0.00 | 0.05 | 0.03 | 54 | 1016.4 |